1505109600.18,4352,15.0,73450.8,5.37,4.63,4.53,0,*4F
1505109601.35,4353,15.0,73456.3,5.37,4.57,4.53,0,*49
1505109602.52,4354,15.0,73450.5,5.41,4.45,4.37,0,*4E
1505109603.7,4355,15.0,73458.8,5.41,4.37,4.37,0,*4A
1505109604.9,4356,15.0,73450.3,5.37,4.31,4.41,0,*4F
1505109606.08,4357,15.0,73452.0,5.37,4.45,4.33,0,*48
1505109607.25,4358,15.0,73454.5,5.37,4.33,4.33,0,*46
1505109608.42,4359,15.0,73458.5,5.41,4.15,4.15,0,*46
1505109609.6,4360,15.0,73458.3,5.37,4.07,4.07,0,*4D
1505109610.77,4361,15.0,73452.8,5.37,4.19,4.07,0,*43
1505109611.94,4362,15.0,73458.8,5.37,4.19,4.19,0,*4F
1505109613.11,4363,15.0,73466.3,5.41,4.45,4.41,0,*4B
1505109614.29,4364,15.0,73466.5,5.41,4.37,4.33,0,*4C
1505109615.46,4365,15.0,73468.0,5.41,4.41,4.33,0,*4C
1505109616.64,4366,15.0,73470.0,5.41,4.37,4.33,0,*4E
1505109617.8,4367,15.0,73464.3,5.41,4.27,4.27,0,*4B
1505109619.0,4368,15.0,73472.8,5.37,4.63,4.53,0,*46
1505109620.22,4369,14.94,73468.5,5.41,4.67,4.67,0,*45
1505109621.42,4370,15.0,73470.5,5.37,4.63,4.57,0,*4B
1505109622.62,4371,15.0,73466.3,5.37,4.53,4.59,0,*47
1505109623.84,4372,15.0,73470.8,5.37,4.63,4.63,0,*4E
1505109625.07,4373,15.0,73460.5,5.41,4.67,4.67,0,*4E
1505109626.27,4374,15.0,73466.8,5.37,4.63,4.57,0,*4F
1505109627.43,4375,15.0,73464.5,5.41,4.49,4.49,0,*48
1505109628.6,4376,15.0,73472.0,5.41,4.49,4.57,0,*44
1505109629.77,4377,15.0,73470.5,5.37,4.45,4.45,0,*4B
1505109630.93,4378,15.0,73470.8,5.41,4.49,4.45,0,*49
1505109632.1,4379,15.0,73464.3,5.37,4.45,4.33,0,*44
1505109633.28,4380,15.0,73472.5,5.41,4.37,4.33,0,*46
1505109634.48,4381,15.0,73476.5,5.37,4.33,4.31,0,*40
1505109635.66,4382,14.94,73474.3,5.37,4.41,4.41,0,*41
1505109636.82,4383,14.94,73468.0,5.41,4.49,4.57,0,*4E
1505109637.99,4384,15.0,73470.8,5.41,4.57,4.49,0,*49
1505109639.21,4385,15.0,73474.8,5.41,4.59,4.59,0,*47
1505109640.43,4386,15.0,73472.5,5.37,4.63,4.63,0,*45
1505109641.61,4387,15.0,73472.0,5.41,4.57,4.57,0,*45
1505109642.78,4388,15.0,73478.3,5.41,4.37,4.33,0,*4E
1505109643.96,4389,15.0,73474.3,5.41,4.37,4.33,0,*4F
1505109645.13,4390,15.0,73474.5,5.41,4.57,4.57,0,*43
1505109646.3,4391,15.0,73470.0,5.41,4.49,4.57,0,*4D
1505109647.46,4392,15.0,73474.3,5.41,4.49,4.49,0,*41
1505109648.63,4393,15.0,73458.0,5.41,4.33,4.27,0,*45
1505109649.79,4394,15.0,73454.3,5.41,4.49,4.45,0,*4B
1505109650.99,4395,15.0,73446.0,5.41,4.67,4.57,0,*45
1505109652.16,4396,15.0,73442.0,5.41,4.45,4.37,0,*40
1505109653.35,4397,15.0,73432.0,5.41,4.05,4.11,0,*41
1505109654.52,4398,15.0,73422.3,5.41,4.27,4.15,0,*4A
1505109655.69,4399,14.94,73414.0,5.41,4.23,4.23,0,*4A
1505109656.89,4400,15.0,73402.5,5.41,4.05,3.93,0,*45
1505109658.09,4401,15.0,73390.3,5.41,4.01,3.93,0,*40
1505109659.26,4402,14.94,73400.3,5.41,4.23,4.15,0,*4A
1505109660.43,4403,14.94,73398.5,5.37,4.19,4.23,0,*46
1505109661.59,4404,15.0,73412.5,5.41,4.23,4.23,0,*49
1505109662.79,4405,14.94,73422.0,5.37,4.31,4.23,0,*4A
1505109663.96,4406,15.0,73432.8,5.41,4.11,4.15,0,*4F
1505109665.14,4407,15.0,73436.3,5.41,4.07,4.07,0,*4A
1505109666.31,4408,15.0,73430.3,5.37,4.37,4.45,0,*41
1505109667.49,4409,14.94,73434.0,5.41,4.57,4.57,0,*44
1505109668.66,4410,15.0,73434.5,5.37,4.57,4.53,0,*49
1505109669.83,4411,15.0,73430.8,5.37,4.41,4.33,0,*49
1505109671.01,4412,15.0,73438.3,5.41,4.37,4.37,0,*4E
1505109672.18,4413,15.0,73434.8,5.41,4.45,4.33,0,*4E
1505109673.35,4414,15.0,73438.3,5.41,4.49,4.45,0,*44
1505109674.51,4415,14.94,73438.0,5.41,4.49,4.49,0,*49
1505109675.71,4416,15.0,73444.3,5.37,4.63,4.57,0,*4C
1505109676.88,4417,14.94,73442.8,5.41,4.45,4.37,0,*4E
1505109678.05,4418,15.0,73448.0,5.37,4.33,4.23,0,*44
1505109679.22,4419,15.0,73438.3,5.37,4.49,4.37,0,*4D
1505109680.39,4420,15.0,73436.3,5.41,4.57,4.49,0,*40
1505109681.55,4421,15.0,73450.8,5.37,4.19,4.11,0,*47
1505109682.75,4422,15.0,73448.8,5.41,4.11,4.05,0,*48
1505109683.92,4423,15.0,73444.5,5.37,4.11,4.11,0,*4D
1505109685.1,4424,15.0,73440.0,5.41,4.27,4.33,0,*4E
1505109686.27,4425,15.0,73442.8,5.37,4.41,4.45,0,*4F
1505109687.44,4426,15.0,73458.5,5.37,4.53,4.53,0,*48
1505109688.62,4427,14.94,73444.5,5.37,4.53,4.45,0,*4E
1505109689.79,4428,15.0,73448.0,5.37,4.41,4.41,0,*46
1505109690.96,4429,15.0,73446.0,5.41,4.49,4.33,0,*4B
1505109692.13,4430,14.94,73428.5,5.37,4.23,4.27,0,*4B
1505109693.29,4431,14.94,73432.5,5.37,4.27,4.27,0,*4E
1505109694.47,4432,15.0,73438.5,5.37,4.41,4.41,0,*4D
1505109695.65,4433,15.0,73420.5,5.41,4.37,4.33,0,*49
1505109696.81,4434,15.0,73440.8,5.41,4.49,4.45,0,*46
1505109697.99,4435,15.0,73448.3,5.37,4.53,4.53,0,*4A
1505109699.21,4436,15.0,73442.0,5.41,4.59,4.59,0,*48
1505109700.38,4437,15.0,73446.5,5.41,4.45,4.45,0,*49
1505109701.54,4438,15.0,73444.5,5.41,4.57,4.49,0,*49
1505109702.71,4439,14.94,73436.3,5.41,4.57,4.49,0,*48
1505109703.88,4440,14.94,73418.0,5.37,4.53,4.45,0,*4F
1505109705.05,4441,14.94,73418.5,5.41,4.57,4.57,0,*48
1505109706.27,4442,14.94,73412.8,5.41,4.67,4.59,0,*46
1505109707.44,4443,15.0,73418.8,5.41,4.45,4.37,0,*4F
1505109708.62,4444,15.0,73428.8,5.41,4.37,4.37,0,*4D
1505109709.79,4445,15.0,73430.8,5.41,4.33,4.23,0,*4D
1505109710.96,4446,14.94,73428.3,5.41,4.15,4.15,0,*4F
1505109712.13,4447,15.0,73428.8,5.41,4.15,4.23,0,*4B
1505109713.3,4448,15.0,73430.0,5.41,4.27,4.23,0,*45
1505109714.47,4449,15.0,73428.5,5.41,4.33,4.23,0,*41
1505109715.64,4450,14.94,73426.5,5.41,4.15,4.15,0,*48
1505109716.8,4451,14.94,73432.3,5.37,4.19,4.19,0,*48
1505109718.03,4452,15.0,73436.8,5.37,4.31,4.31,0,*4B
1505109719.2,4453,15.0,73436.5,5.41,4.33,4.33,0,*4B
1505109720.37,4454,14.94,73432.5,5.41,4.15,4.11,0,*48
1505109721.59,4455,14.94,73430.5,5.37,3.97,4.01,0,*44
1505109722.75,4456,14.94,73428.5,5.37,4.19,4.19,0,*4F
1505109723.92,4457,14.94,73430.3,5.41,4.27,4.27,0,*4F
1505109725.12,4458,15.0,73426.0,5.37,4.33,4.31,0,*43
1505109726.29,4459,15.0,73430.0,5.37,4.19,4.11,0,*48
1505109727.51,4460,14.94,73412.3,5.41,4.05,4.05,0,*4B
1505109728.71,4461,14.94,73374.5,5.37,4.01,3.89,0,*4C
1505109729.91,4462,14.94,73362.5,5.37,4.07,4.01,0,*4E
1505109731.14,4463,14.94,73382.0,5.35,4.07,4.05,0,*49
1505109732.33,4464,14.94,73386.8,5.35,4.49,4.41,0,*44
1505109733.51,4465,15.0,73400.0,5.37,4.53,4.45,0,*48
1505109734.68,4466,15.0,73422.3,5.37,4.53,4.41,0,*4F
1505109735.89,4467,15.0,73408.8,5.37,4.31,4.33,0,*4F
1505109737.06,4468,15.0,73420.8,5.37,4.23,4.23,0,*42
1505109738.23,4469,15.0,73426.5,5.37,4.23,4.23,0,*43
1505109739.39,4470,14.94,73432.8,5.41,4.33,4.27,0,*4F
1505109740.57,4471,15.0,73434.3,5.37,4.41,4.33,0,*4F
1505109741.73,4472,14.94,73436.3,5.41,4.49,4.45,0,*44
1505109742.93,4473,15.0,73436.8,5.37,4.33,4.31,0,*4A
1505109744.13,4474,14.94,73442.8,5.37,4.33,4.31,0,*4D
1505109745.31,4475,15.0,73448.3,5.37,4.41,4.41,0,*4E
1505109746.47,4476,14.94,73444.3,5.41,4.49,4.49,0,*4C
1505109747.63,4477,14.94,73440.5,5.41,4.49,4.49,0,*4D
1505109748.8,4478,15.0,73444.3,5.37,4.45,4.33,0,*42
1505109749.98,4479,14.94,73448.0,5.37,4.53,4.41,0,*41
1505109751.15,4480,14.94,73442.5,5.41,4.57,4.57,0,*45
1505109752.32,4481,15.0,73442.5,5.41,4.45,4.33,0,*45
1505109753.49,4482,15.0,73440.8,5.37,4.23,4.15,0,*43
1505109754.66,4483,14.94,73428.5,5.37,4.15,4.11,0,*43
1505109755.86,4484,14.94,73428.3,5.37,4.07,4.01,0,*46
1505109757.08,4485,15.0,73428.5,5.41,4.05,4.05,0,*40
1505109758.26,4486,15.0,73430.0,5.37,4.07,4.07,0,*42
1505109759.46,4487,15.0,73434.3,5.37,4.01,3.89,0,*44
1505109760.68,4488,14.94,73436.0,5.37,3.97,3.97,0,*4C
1505109761.9,4489,15.0,73442.5,5.35,4.07,4.05,0,*4D
1505109763.08,4490,15.0,73438.5,5.33,4.15,4.07,0,*42
1505109764.28,4491,15.0,73440.5,5.35,4.41,4.41,0,*46
1505109765.5,4492,14.94,73448.8,5.35,4.31,4.27,0,*42
1505109766.7,4493,15.0,73440.3,5.35,4.41,4.49,0,*4C
1505109767.92,4494,14.94,73432.5,5.35,4.41,4.31,0,*44
1505109769.09,4495,14.94,73434.5,5.37,4.23,4.19,0,*49
1505109770.26,4496,15.0,73434.0,5.37,4.23,4.23,0,*43
1505109771.49,4497,15.0,73426.5,5.37,4.31,4.31,0,*42
1505109772.66,4498,14.94,73420.0,5.37,4.41,4.33,0,*48
1505109773.83,4499,14.94,73422.3,5.37,4.11,4.11,0,*4C
1505109775.01,4500,15.0,73420.0,5.37,4.45,4.33,0,*4C
1505109776.17,4501,14.94,73408.3,5.37,4.33,4.19,0,*44
1505109777.35,4502,14.94,73426.3,5.37,4.45,4.41,0,*4B
1505109778.54,4503,14.94,73438.8,5.41,4.57,4.59,0,*41
1505109779.72,4504,15.0,73446.3,5.37,4.33,4.33,0,*49
1505109780.89,4505,14.94,73446.0,5.37,4.45,4.41,0,*4C
1505109782.06,4506,15.0,73440.3,5.37,4.53,4.45,0,*4C
1505109783.24,4507,14.94,73424.0,5.37,4.33,4.33,0,*4A
1505109784.44,4508,15.0,73428.0,5.37,4.31,4.23,0,*46
1505109785.64,4509,15.0,73432.0,5.37,4.07,4.01,0,*42
1505109786.81,4510,15.0,73430.8,5.37,4.07,4.07,0,*4C
1505109787.99,4511,14.94,73432.8,5.37,4.41,4.41,0,*4D
1505109789.19,4512,14.94,73438.3,5.37,4.33,4.31,0,*4C
1505109790.36,4513,14.94,73430.3,5.37,4.53,4.53,0,*4F
1505109791.56,4514,14.94,73434.8,5.37,4.63,4.57,0,*4F
1505109792.74,4515,14.94,73436.8,5.37,4.53,4.41,0,*4A
1505109793.91,4516,14.94,73442.0,5.37,4.23,4.11,0,*4B
1505109795.11,4517,14.94,73358.0,5.37,4.33,4.31,0,*49
1505109796.33,4518,14.94,73374.8,5.37,4.31,4.31,0,*44
1505109797.51,4519,14.94,73392.5,5.41,4.53,4.41,0,*47
1505109798.68,4520,14.94,73406.8,5.37,4.53,4.45,0,*48
1505109799.85,4521,14.94,73410.3,5.37,4.23,4.23,0,*4E
1505109801.02,4522,14.94,73412.0,5.37,4.33,4.23,0,*4C
1505109802.19,4523,14.94,73412.0,5.41,4.37,4.27,0,*4C
1505109803.37,4524,14.94,73416.8,5.37,4.53,4.41,0,*48
1505109804.59,4525,14.94,73424.3,5.41,4.67,4.59,0,*46
1505109805.75,4526,15.0,73424.0,5.41,4.49,4.45,0,*44
1505109806.92,4527,14.94,73426.5,5.41,4.37,4.27,0,*48
1505109808.09,4528,14.94,73432.5,5.37,4.19,4.19,0,*47
1505109809.25,4529,14.94,73432.8,5.37,4.19,4.19,0,*46
1505109810.42,4530,14.94,73424.0,5.37,4.19,4.11,0,*46
1505109811.6,4531,14.94,73412.5,5.37,4.33,4.33,0,*4F
1505109812.77,4532,15.0,73408.0,5.37,4.53,4.45,0,*4B
1505109813.94,4533,14.94,73404.5,5.37,4.45,4.33,0,*4C
1505109815.14,4534,15.0,73414.0,5.37,4.33,4.31,0,*48
1505109816.31,4535,14.94,73402.0,5.37,4.19,4.11,0,*43
1505109817.48,4536,15.0,73408.0,5.37,4.19,4.11,0,*40
1505109818.66,4537,14.94,73416.5,5.37,4.33,4.33,0,*49
1505109819.83,4538,15.0,73424.8,5.37,4.41,4.45,0,*42
1505109821.0,4539,14.94,73420.3,5.37,4.45,4.41,0,*43
1505109822.2,4540,14.94,73430.5,5.37,4.33,4.31,0,*4B
1505109823.38,4541,15.0,73428.0,5.37,4.07,4.07,0,*48
1505109824.54,4542,14.94,73422.0,5.37,4.19,4.11,0,*43
1505109825.77,4543,15.0,73394.5,5.37,4.31,4.31,0,*4A
1505109826.95,4544,14.94,73390.0,5.37,4.53,4.45,0,*4A
1505109828.15,4545,14.94,73396.3,5.37,4.53,4.63,0,*4F
1505109829.37,4546,14.94,73422.0,5.41,4.59,4.59,0,*4E
1505109830.57,4547,15.0,73428.8,5.37,4.57,4.63,0,*49
1505109831.74,4548,15.0,73420.0,5.37,4.57,4.57,0,*41
1505109832.91,4549,14.94,73418.3,5.41,4.15,4.11,0,*45
1505109834.07,4550,14.94,73430.5,5.41,4.11,4.11,0,*49
1505109835.24,4551,15.0,73432.0,5.37,4.11,4.11,0,*49
1505109836.42,4552,15.0,73434.8,5.41,4.27,4.23,0,*4F
1505109837.61,4553,14.94,73434.8,5.37,4.31,4.23,0,*48
1505109838.78,4554,14.94,73438.5,5.37,4.11,4.11,0,*4C
1505109839.96,4555,14.94,73434.0,5.37,4.07,4.07,0,*4D
1505109841.13,4556,15.0,73440.3,5.37,4.23,4.07,0,*48
1505109842.3,4557,15.0,73436.5,5.37,4.23,4.23,0,*4F
1505109843.47,4558,14.94,73426.5,5.37,4.23,4.23,0,*40
1505109844.65,4559,15.0,73428.8,5.37,4.53,4.45,0,*46
1505109845.85,4560,14.94,73428.3,5.37,4.63,4.57,0,*4C
1505109847.01,4561,15.0,73430.3,5.41,4.49,4.45,0,*47
1505109848.18,4562,14.94,73426.8,5.41,4.27,4.27,0,*48
1505109849.38,4563,15.0,73430.0,5.37,4.31,4.23,0,*4B
1505109850.55,4564,14.94,73428.0,5.37,4.53,4.53,0,*4F
1505109851.71,4565,14.94,73432.3,5.41,4.49,4.49,0,*4F
1505109852.89,4566,14.94,73430.8,5.37,4.53,4.53,0,*4D
1505109854.06,4567,14.94,73436.5,5.37,4.57,4.57,0,*4C
1505109855.23,4568,14.94,73432.0,5.37,4.45,4.45,0,*43
1505109856.41,4569,14.94,73436.0,5.41,4.37,4.33,0,*47
1505109857.58,4570,15.0,73442.5,5.37,4.57,4.45,0,*49
1505109858.75,4571,15.0,73446.0,5.41,4.49,4.45,0,*46
1505109859.95,4572,14.94,73440.0,5.41,4.59,4.57,0,*47
1505109861.16,4573,15.0,73448.3,5.41,4.67,4.59,0,*45
1505109862.38,4574,15.0,73464.0,5.41,4.67,4.59,0,*42
1505109863.6,4575,15.0,73460.3,5.41,4.59,4.59,0,*4E
1505109864.76,4576,15.0,73468.3,5.41,4.49,4.49,0,*4D
1505109865.93,4577,14.94,73460.3,5.41,4.57,4.57,0,*4C
1505109867.09,4578,14.94,73458.3,5.41,4.49,4.49,0,*43
1505109868.26,4579,14.94,73444.0,5.41,4.49,4.45,0,*4E
1505109869.43,4580,14.94,73442.0,5.41,4.27,4.15,0,*45
1505109870.59,4581,14.94,73442.8,5.41,4.19,4.19,0,*45
1505109871.76,4582,15.0,73432.3,5.41,4.23,4.23,0,*46
1505109872.93,4583,15.0,73408.0,5.41,4.15,4.11,0,*43
1505109874.15,4584,15.0,73398.0,5.41,4.05,4.05,0,*40
1505109875.33,4585,14.94,73410.5,5.37,4.07,4.07,0,*40
1505109876.5,4586,15.0,73428.3,5.41,4.15,4.15,0,*42
1505109877.7,4587,15.0,73428.8,5.37,4.07,4.01,0,*44
1505109878.89,4588,14.94,73432.5,5.37,3.97,3.85,0,*4E
1505109880.06,4589,14.94,73440.5,5.41,4.15,4.15,0,*4D
1505109881.23,4590,14.94,73440.5,5.37,4.45,4.41,0,*40
1505109882.4,4591,14.94,73444.0,5.37,4.45,4.53,0,*42
1505109883.6,4592,14.94,73450.0,5.37,4.57,4.63,0,*41
1505109884.82,4593,15.0,73454.3,5.41,4.67,4.67,0,*46
1505109886.04,4594,15.0,73452.8,5.41,4.67,4.59,0,*4C
1505109887.26,4595,15.0,73448.5,5.41,4.67,4.67,0,*40
1505109888.43,4596,15.0,73456.0,5.41,4.57,4.45,0,*40
1505109889.61,4597,14.94,73448.3,5.41,4.37,4.37,0,*42
1505109890.77,4598,14.94,73448.5,5.41,4.49,4.49,0,*4D
1505109891.93,4599,14.94,73440.3,5.41,4.49,4.49,0,*4C
1505109893.15,4600,15.0,73442.5,5.41,4.59,4.59,0,*4F
1505109894.37,4601,15.0,73446.3,5.41,4.67,4.67,0,*4E
1505109895.54,4602,15.0,73442.3,5.41,4.23,4.23,0,*4D
1505109896.71,4603,14.94,73442.3,5.41,4.15,4.15,0,*4C
1505109897.88,4604,14.94,73440.8,5.41,4.15,4.15,0,*4B
1505109899.05,4605,14.94,73442.8,5.41,4.27,4.27,0,*4A
1505109900.22,4606,15.0,73444.8,5.41,4.33,4.33,0,*49
1505109901.39,4607,14.94,73442.3,5.41,4.37,4.45,0,*4D
1505109902.56,4608,14.94,73442.5,5.41,4.33,4.23,0,*46
1505109903.74,4609,14.94,73416.3,5.41,4.33,4.33,0,*46
1505109904.96,4610,15.0,73396.3,5.41,4.05,4.01,0,*4A
1505109906.13,4611,15.0,73384.3,5.41,3.89,3.89,0,*4F
1505109907.3,4612,14.94,73382.5,5.41,4.15,4.23,0,*49
1505109908.47,4613,14.94,73396.0,5.41,4.23,4.23,0,*4D
1505109909.65,4614,14.94,73408.8,5.41,4.37,4.37,0,*4A
1505109910.82,4615,14.94,73420.0,5.41,4.27,4.15,0,*4A
1505109911.99,4616,15.0,73426.3,5.41,4.11,4.11,0,*48
1505109913.15,4617,14.94,73424.3,5.41,4.23,4.19,0,*40
1505109914.32,4618,14.94,73426.3,5.41,4.33,4.27,0,*43
1505109915.49,4619,15.0,73430.5,5.41,4.33,4.33,0,*47
1505109916.66,4620,14.94,73422.0,5.41,4.23,4.15,0,*48
1505109917.83,4621,14.94,73416.8,5.41,4.33,4.33,0,*4C
1505109919.01,4622,14.94,73416.3,5.37,4.11,4.11,0,*4E
1505109920.2,4623,14.94,73428.3,5.41,4.05,4.11,0,*4B
1505109921.42,4624,14.94,73424.0,5.41,4.05,4.01,0,*4D
1505109922.6,4625,14.94,73420.8,5.37,4.07,4.07,0,*49
1505109923.79,4626,15.0,73428.3,5.37,4.01,4.07,0,*4C
1505109924.99,4627,15.0,73430.8,5.37,4.07,4.01,0,*4D
1505109926.21,4628,15.0,73438.3,5.37,4.01,4.01,0,*44
1505109927.37,4629,15.0,73450.0,5.37,4.19,4.19,0,*45
1505109928.57,4630,15.0,73444.8,5.37,4.31,4.23,0,*4E
1505109929.74,4631,15.0,73444.5,5.37,4.41,4.41,0,*4C
1505109930.92,4632,15.0,73424.8,5.37,4.11,4.11,0,*4F
1505109932.08,4633,15.0,73416.3,5.37,4.19,4.19,0,*4E
1505109933.25,4634,14.94,73418.3,5.37,4.45,4.45,0,*49
1505109934.42,4635,15.0,73406.8,5.37,4.23,4.19,0,*41
1505109935.65,4636,15.0,73406.5,5.37,4.31,4.31,0,*4B
1505109936.82,4637,15.0,73404.8,5.37,4.23,4.23,0,*4A
1505109937.98,4638,15.0,73408.8,5.37,4.23,4.19,0,*4C
1505109939.18,4639,14.94,73408.3,5.35,4.19,4.19,0,*46
1505109940.34,4640,15.0,73412.0,5.37,4.19,4.19,0,*4A
1505109941.54,4641,14.94,73412.3,5.37,4.31,4.23,0,*48
1505109942.74,4642,14.94,73406.8,5.37,4.33,4.31,0,*4A
1505109943.92,4643,14.94,73404.5,5.37,4.33,4.33,0,*49
1505109945.1,4644,15.0,73396.8,5.41,4.37,4.37,0,*4F
1505109946.29,4645,15.0,73400.0,5.37,4.31,4.23,0,*4C
1505109947.47,4646,15.0,73406.8,5.37,4.33,4.33,0,*4C
1505109948.65,4647,14.94,73394.5,5.37,4.41,4.41,0,*4D
1505109949.82,4648,15.0,73406.3,5.37,4.45,4.45,0,*42
1505109950.99,4649,14.94,73410.3,5.37,4.57,4.45,0,*40
1505109952.18,4650,15.0,73408.8,5.41,4.63,4.49,0,*42
1505109953.35,4651,14.94,73404.8,5.41,4.49,4.37,0,*42
1505109954.55,4652,15.0,73398.0,5.37,4.33,4.31,0,*4B
1505109955.71,4653,14.94,73386.5,5.37,4.19,4.11,0,*40
1505109956.93,4654,15.0,73396.0,5.37,4.01,4.01,0,*4F
1505109958.13,4655,15.0,73400.0,5.37,4.33,4.31,0,*4C
1505109959.3,4656,15.0,73404.5,5.37,4.41,4.41,0,*4D
1505109960.47,4657,14.94,73410.0,5.37,4.19,4.19,0,*4C
1505109961.64,4658,15.0,73408.3,5.37,4.19,4.23,0,*4A
1505109962.84,4659,15.0,73404.8,5.37,4.31,4.23,0,*41
1505109964.04,4660,14.94,73406.0,5.37,4.31,4.23,0,*4B
1505109965.23,4661,15.0,73400.0,5.37,4.31,4.23,0,*4A
1505109966.46,4662,15.0,73402.5,5.35,4.07,3.97,0,*46
1505109967.71,4663,15.0,73398.3,5.35,4.31,4.31,0,*49
1505109968.94,4664,15.0,73400.5,5.35,4.31,4.23,0,*4D
1505109970.11,4665,15.0,73402.8,5.37,4.19,4.11,0,*45
1505109971.3,4666,14.94,73404.5,5.35,3.93,3.85,0,*4B
1505109972.53,4667,14.94,73414.8,5.35,4.15,4.05,0,*4C
1505109973.74,4668,15.0,73414.0,5.35,4.07,4.07,0,*42
1505109974.99,4669,15.0,73410.3,5.35,4.05,4.05,0,*43
1505109976.19,4670,14.94,73418.0,5.35,4.27,4.15,0,*4A
1505109977.36,4671,15.0,73418.8,5.33,4.07,4.15,0,*4F
1505109978.62,4672,14.94,73422.0,5.35,4.05,4.05,0,*49
1505109979.87,4673,15.0,73428.5,5.35,4.05,4.05,0,*48
1505109981.12,4674,15.0,73434.3,5.35,3.97,4.05,0,*43
1505109982.28,4675,15.0,73436.0,5.33,4.27,4.19,0,*45
1505109983.45,4676,15.0,73438.3,5.37,4.19,4.19,0,*4F
1505109984.62,4677,14.94,73436.0,5.33,4.27,4.19,0,*47
1505109985.82,4678,15.0,73434.0,5.37,4.41,4.31,0,*46
1505109987.02,4679,15.0,73436.5,5.35,4.37,4.37,0,*42
1505109988.22,4680,15.0,73440.0,5.35,4.53,4.49,0,*4F
1505109989.47,4681,15.0,73440.0,5.35,4.59,4.59,0,*45
1505109990.67,4682,15.0,73440.8,5.35,4.49,4.53,0,*4D
1505109991.84,4683,15.0,73452.0,5.37,4.45,4.33,0,*44
1505109993.07,4684,14.94,73450.3,5.35,4.37,4.31,0,*46
1505109994.24,4685,15.0,73458.3,5.37,4.53,4.45,0,*44
1505109995.47,4686,15.0,73454.8,5.37,4.63,4.63,0,*40
1505109996.65,4687,15.0,73450.8,5.37,4.53,4.41,0,*42
1505109997.82,4688,14.94,73446.3,5.37,4.41,4.41,0,*4E
1505109999.0,4689,15.0,73440.5,5.37,4.41,4.41,0,*4F
1505110000.17,4690,15.0,73438.0,5.37,4.33,4.23,0,*46
1505110001.34,4691,15.0,73432.5,5.37,4.33,4.23,0,*47
1505110002.51,4692,14.94,73432.5,5.37,4.23,4.23,0,*45
1505110003.68,4693,15.0,73432.8,5.37,4.45,4.41,0,*40
1505110004.84,4694,15.0,73432.0,5.33,4.49,4.49,0,*47
1505110006.07,4695,15.0,73442.8,5.37,4.31,4.31,0,*42
1505110007.24,4696,15.0,73442.3,5.37,4.45,4.45,0,*41
1505110008.42,4697,15.0,73438.0,5.37,4.53,4.53,0,*40
1505110009.64,4698,14.94,73438.0,5.41,4.67,4.67,0,*4E
1505110010.86,4699,15.0,73438.3,5.41,4.71,4.59,0,*45
1505110012.08,4700,14.94,73434.5,5.37,4.67,4.63,0,*4B
1505110013.28,4701,14.94,73424.3,5.37,4.57,4.59,0,*40
1505110014.44,4702,15.0,73422.5,5.41,4.49,4.49,0,*4C
1505110015.61,4703,15.0,73412.8,5.37,4.45,4.41,0,*48
1505110016.78,4704,15.0,73396.5,5.37,4.49,4.49,0,*4B
1505110017.95,4705,15.0,73406.0,5.41,4.45,4.37,0,*4E
1505110019.15,4706,15.0,73408.8,5.37,4.31,4.23,0,*4A
1505110020.32,4707,14.94,73392.5,5.41,4.27,4.23,0,*4D
1505110021.49,4708,15.0,73420.8,5.41,4.27,4.23,0,*42
1505110022.65,4709,15.0,73416.5,5.41,4.49,4.45,0,*4B
1505110023.83,4710,15.0,73418.0,5.41,4.37,4.37,0,*4F
1505110025.0,4711,14.94,73414.5,5.41,4.45,4.37,0,*4B
1505110026.17,4712,14.94,73412.0,5.41,4.45,4.45,0,*4D
1505110027.34,4713,15.0,73414.0,5.41,4.27,4.27,0,*4C
1505110028.5,4714,15.0,73420.3,5.41,4.49,4.45,0,*47
1505110029.7,4715,14.94,73418.3,5.43,4.41,4.41,0,*48
1505110030.87,4716,15.0,73404.8,5.41,4.23,4.15,0,*4C
1505110032.04,4717,15.0,73402.8,5.41,4.15,4.15,0,*48
1505110033.21,4718,15.0,73410.8,5.41,4.37,4.27,0,*46
1505110034.38,4719,15.0,73418.0,5.41,4.57,4.57,0,*46
1505110035.6,4720,14.94,73416.3,5.41,4.59,4.59,0,*4C
1505110036.76,4721,15.0,73408.8,5.41,4.49,4.49,0,*4D
1505110037.92,4722,15.0,73406.0,5.41,4.49,4.49,0,*4E
1505110039.12,4723,14.94,73404.0,5.37,4.31,4.23,0,*4D
1505110040.29,4724,14.94,73400.8,5.41,4.33,4.27,0,*4D
1505110041.48,4725,15.0,73412.0,5.37,4.41,4.31,0,*4F
1505110042.65,4726,15.0,73410.3,5.41,4.23,4.15,0,*4F
1505110043.83,4727,14.94,73410.3,5.37,4.11,4.07,0,*4D
1505110045.0,4728,14.94,73408.5,5.41,4.11,4.11,0,*44
1505110046.17,4729,15.0,73412.8,5.41,4.33,4.33,0,*45
1505110047.35,4730,15.0,73402.3,5.37,4.37,4.37,0,*4C
1505110048.52,4731,15.0,73408.3,5.37,4.19,4.11,0,*45
1505110049.69,4732,14.94,73394.3,5.41,4.23,4.23,0,*4F
1505110050.91,4733,14.94,73394.5,5.37,4.31,4.31,0,*4F
1505110052.08,4734,15.0,73412.8,5.37,4.33,4.27,0,*4D
1505110053.26,4735,14.94,73412.5,5.37,4.41,4.41,0,*49
1505110054.43,4736,15.0,73424.5,5.37,4.41,4.41,0,*4A
1505110055.6,4737,14.94,73426.5,5.41,4.49,4.57,0,*45
1505110056.77,4738,15.0,73422.3,5.41,4.37,4.45,0,*40
1505110057.94,4739,15.0,73418.3,5.41,4.49,4.45,0,*48
1505110059.11,4740,15.0,73422.8,5.41,4.45,4.45,0,*4A
1505110060.28,4741,15.0,73416.8,5.41,4.37,4.37,0,*4B
1505110061.45,4742,15.0,73412.8,5.41,4.27,4.27,0,*48
1505110062.65,4743,14.94,73412.8,5.41,4.15,4.05,0,*48
1505110063.88,4744,15.0,73420.0,5.37,4.31,4.31,0,*4F
1505110065.05,4745,14.94,73418.5,5.41,4.37,4.37,0,*4F
1505110066.23,4746,15.0,73424.8,5.41,4.45,4.37,0,*49
1505110067.4,4747,15.0,73436.8,5.37,4.41,4.41,0,*4C
1505110068.57,4748,15.0,73436.5,5.41,4.49,4.45,0,*4E
1505110069.73,4749,14.94,73430.8,5.37,4.49,4.45,0,*4E
1505110070.9,4750,14.94,73434.5,5.41,4.23,4.19,0,*42
1505110072.09,4751,15.0,73438.8,5.41,4.05,4.11,0,*4F
1505110073.26,4752,15.0,73440.5,5.37,4.23,4.19,0,*41
1505110074.43,4753,15.0,73440.5,5.37,4.11,4.19,0,*41
1505110075.59,4754,15.0,73444.8,5.41,4.27,4.27,0,*4F
1505110076.8,4755,15.0,73452.0,5.37,4.33,4.31,0,*4D
1505110077.97,4756,15.0,73458.0,5.41,4.57,4.57,0,*4D
1505110079.19,4757,14.94,73464.3,5.41,4.59,4.59,0,*4C
1505110080.36,4758,14.94,73462.0,5.37,4.57,4.53,0,*46
1505110081.58,4759,15.0,73458.0,5.37,4.63,4.63,0,*43
1505110082.78,4760,14.94,73454.5,5.41,4.67,4.57,0,*4B
1505110083.95,4761,14.94,73450.0,5.41,4.57,4.53,0,*4D
1505110085.12,4762,14.94,73452.0,5.37,4.57,4.53,0,*4F
1505110086.29,4763,15.0,73436.8,5.41,4.45,4.37,0,*4E
1505110087.45,4764,14.94,73414.3,5.41,4.49,4.49,0,*4C
1505110088.62,4765,15.0,73416.8,5.41,4.45,4.45,0,*4D
1505110089.79,4766,14.94,73428.0,5.41,4.45,4.37,0,*4B
1505110090.96,4767,15.0,73436.0,5.41,4.45,4.45,0,*4F
1505110092.12,4768,14.94,73438.8,5.41,4.45,4.49,0,*4C
1505110093.3,4769,15.0,73438.3,5.37,4.33,4.37,0,*44
1505110094.47,4770,15.0,73442.0,5.41,4.27,4.23,0,*4D
1505110095.64,4771,15.0,73448.0,5.41,4.27,4.27,0,*48
1505110096.81,4772,15.0,73442.8,5.41,4.15,4.15,0,*4B
1505110097.98,4773,15.0,73444.8,5.37,4.41,4.41,0,*4B
1505110099.15,4774,15.0,73446.3,5.41,4.49,4.45,0,*41
1505110100.31,4775,14.94,73450.5,5.41,4.49,4.49,0,*4C
1505110101.48,4776,14.94,73448.0,5.41,4.45,4.37,0,*4A
1505110102.66,4777,14.94,73454.3,5.41,4.37,4.37,0,*4E
1505110103.83,4778,15.0,73460.5,5.41,4.45,4.45,0,*41
1505110105.0,4779,15.0,73448.3,5.41,4.57,4.57,0,*40
1505110106.17,4780,14.94,73432.5,5.41,4.57,4.57,0,*46
1505110107.34,4781,15.0,73440.8,5.41,4.57,4.57,0,*47
1505110108.51,4782,14.94,73438.3,5.41,4.57,4.57,0,*44
1505110109.68,4783,14.94,73410.5,5.41,4.57,4.57,0,*45
1505110110.86,4784,15.0,73404.5,5.41,4.37,4.37,0,*42
1505110112.04,4785,15.0,73414.8,5.41,4.33,4.33,0,*43
1505110113.21,4786,15.0,73412.0,5.41,4.45,4.37,0,*45
1505110114.41,4787,14.94,73404.0,5.41,4.59,4.57,0,*4F
1505110115.63,4788,15.0,73406.5,5.41,4.59,4.59,0,*4E
1505110116.79,4789,14.94,73404.5,5.41,4.49,4.45,0,*43
1505110117.96,4790,15.0,73406.0,5.41,4.49,4.57,0,*48
1505110119.13,4791,15.0,73408.8,5.41,4.23,4.23,0,*46
1505110120.31,4792,14.94,73412.8,5.41,4.37,4.37,0,*45
1505110121.48,4793,15.0,73414.8,5.41,4.45,4.33,0,*45
1505110122.65,4794,14.94,73416.3,5.41,4.33,4.37,0,*47
1505110123.83,4795,14.94,73416.3,5.41,4.37,4.37,0,*42
1505110125.0,4796,15.0,73420.8,5.41,4.23,4.27,0,*45
1505110126.19,4797,15.0,73420.5,5.41,4.57,4.59,0,*4E
1505110127.35,4798,14.94,73412.5,5.41,4.57,4.49,0,*40
1505110128.52,4799,14.94,73412.0,5.41,4.27,4.27,0,*4E
1505110129.69,4800,15.0,73410.5,5.41,4.45,4.37,0,*44
1505110130.87,4801,14.94,73408.3,5.41,4.37,4.33,0,*44